Torna al catalogo

NAVSTAR 82

USA 343

AttivoNavigazioneHEO
NORAD 55268·PAYLOAD·🇺🇸 United States

Lanciato Jan 18, 2023 da Cape Canaveral Space Force Station

Loading…

Prossimi Passaggi (prossime 24 ore)

TLE

AggiornatoSource: CelesTrak SupGP

Epoca: Sep 16, 2026, 16:44 UTC

1 55268C 23009A   26259.69756944  .00000000  00000+0  00000+0 0  2591
2 55268  55.1291 144.9207 0005719 331.0710  32.5697  2.00565388    15

Traccia NAVSTAR 82 in tempo reale con AllMySat

Download on the App Store